ROMMA est une association bénévole à but non lucratif. Votre soutien est indispensable : ADHERER à ROMMA ou FAIRE un DON

Engins - (38, Isère)

Vercors (906 m)   Longitude: 05° 37' E   Latitude: 45° 11' N Station partenaire n°139
 

Détail journalier du     <<     >>

Température Precipitation Humidité Vent Dir Rafale Dir. rafale Ensol.
Heure (°C) (mm) (%) (km/h) (km/h) (min)
01:00 8.90908SSO19S0
02:00 8.509010SSO26SSO0
03:00 9.108910SSO26SO0
04:00 9.00878SSO19OSO0
05:00 8.80878SSO18SSO0
06:00 8.20887SSO15SSO0
07:00 8.60866SSO16S0
08:00 9.60826SSO24S0
09:00 10.10788SO26S0
10:00 12.807312SSO27S35
11:00 14.906711S26SSO60
12:00 16.20694SSE13SSE60
13:00 16.90613ESE11SE60
14:00 17.20572NNE6E60
15:00 17.90632ENE8ENE60
16:00 17.80632NE6NNE60
17:00 14.10762NNO5NE30
18:00 13.10783ONO6ONO0
19:00 12.30813ONO6ONO0
20:00 11.80842ONO5ONO0
21:00 11.80843O6S0
22:00 11.80814SO13SSO0
23:00 11.60835SO15S0
minuit 11.10856SO13SSO0

Graphique du 26-10-2019

 

Serveur OMMA